Regional Weather Roundup
Issued by NWS

Home | Current Version | Previous Version | Text Only | Print | Product List | Glossary On
Versions: 1 2 3 4 5 6 7 8 9 10 11 12 13 14 15 16 17 18 19 20 21 22 23 24 25 26 27 28 29 30 31 32 33 34 35 36 37 38 39 40 41 42 43 44 45 46 47 48 49 50
000
ASHW40 PHFO 070010
RWRHI

WEATHER ROUNDUP FOR HAWAII
NATIONAL WEATHER SERVICE HONOLULU HI
200 PM HST MON JUL 06 2015

THIS IS AN AUTOMATED REPORT THAT HAS NOT BEEN QUALITY CONTROLLED.

NOTE..."FAIR" INDICATES FEW OR NO CLOUDS BELOW 12,000 FEET WITH NO
SIGNIFICANT WEATHER AND/OR OBSTRUCTIONS TO VISIBILITY.

* - THESE SITES REPORT LIMITED FIELDS

HIZ001>004-070100-
KAUAI-NIIHAU-

CITY           SKY/WX    TMP DP  RH WIND       PRES   REMARKS
LIHUE APT      PTSUNNY   82  72  71 NE16      30.01F
PORT ALLEN*    NOT AVBL
POIPU*           N/A     84 N/A N/A NE10G20     N/A
PRINCEVILLE*     N/A     81 N/A N/A MISG        N/A
KOKOLE POINT*  NOT AVBL
MOLOAA DAIRY*  NOT AVBL
WAIMEA HTS*    NOT AVBL
PUU OPAE*      NOT AVBL
PUU LUA*       NOT AVBL
MAKAHA RIDGE*  NOT AVBL
$$

HIZ005>011-070100-
OAHU-

CITY           SKY/WX    TMP DP  RH WIND       PRES   REMARKS
HONOLULU       PTSUNNY   88  65  46 NE16G22   29.96F HX  90
KALAELOA       MOSUNNY   85  64  49 E8G22     29.97F
KANEOHE MCB    CLOUDY    84  71  65 NE15      29.96F
WHEELER FIELD  FAIR      80  66  61 E10       29.98S
BELLOWS*       NOT AVBL
KAHUKU*        NOT AVBL
WHEELER*       NOT AVBL
WAIANAE HARBOR NOT AVBL
DILLINGHAM*      N/A     91  64  40 MISG        N/A  HX  93
KAHUKU TRN*      N/A     73  59  60 E12G24      N/A
KAWAILOA*        N/A     79  66  65 E14G24      N/A
KII*             N/A     82  72  69 NE14        N/A
MAKUA RANGE*     N/A     88  63  42 E9G23       N/A
OAHU FOREST NW NOT AVBL
SCHOFIELD BRK*   N/A     66  52  59 MISG        N/A
SCHOFIELD S*   NOT AVBL
WAIANAE VLY*   NOT AVBL
KUAOKALA*      NOT AVBL
HONOULIUULI*   NOT AVBL
MOKUOLOE IS*   NOT AVBL
PALEHUA*       NOT AVBL
WAIAWA PHB*    NOT AVBL
$$

HIZ012>013-070100-
MOLOKAI-

CITY           SKY/WX    TMP DP  RH WIND       PRES   REMARKS
MOLOKAI AIRPT  MOSUNNY   84  67  56 NE17G31   29.97F
KALAUPAPA      NOT AVBL
MAKAPULAPAI*   NOT AVBL
MOLOKAI 1*     NOT AVBL
PUU ALII*      NOT AVBL
$$

HIZ016-070100-
KAHOOLAWE-

CITY           SKY/WX    TMP DP  RH WIND       PRES   REMARKS
KAHOOLAWE*     NOT AVBL
HAKIOAWA*      NOT AVBL
HONOKANAIA*      N/A     83  66  55 E17G26    29.95F
KANELOA*         N/A     82  64  54 E17G26    30.02F
KEALIALALO*    NOT AVBL
LUA MAKIKA*    NOT AVBL
$$

HIZ014>015-070100-
LANAI-

CITY           SKY/WX    TMP DP  RH WIND       PRES   REMARKS
LANAI CITY     FAIR      81  65  58 NE21      30.00F
LANAI 1*       NOT AVBL
$$

HIZ017>028-070100-
MAUI-

CITY           SKY/WX    TMP DP  RH WIND       PRES   REMARKS
KAHULUI        MOSUNNY   87  68  52 NE25G33   29.95F HX  90
KAPALUA-W MAUI MOSUNNY   86  64  48 N14G25    29.96
HANA AIRPORT   MOSUNNY   82  68  61 NE6       30.00S
HANA*          NOT AVBL
HALEAKALA SUMM   N/A     54  12  19 NE21G32     N/A
MAALAEA BAY*   NOT AVBL
HALEAKALA*     NOT AVBL
KAUPO GAP*     NOT AVBL
KULA 1*          N/A     63  58  84 NW5G17      N/A
$$

HIZ023>026-070100-
BIG ISLAND OF HAWAII COAST AND LOWER SLOPES-

CITY           SKY/WX    TMP DP  RH WIND       PRES   REMARKS
KAILUA KONA    PTSUNNY   85  70  60 SW7       29.90F
HILO           MOSUNNY   82  68  62 NE10      29.96F
HONOKAA*       NOT AVBL
KAWAIHAE MWT*  NOT AVBL
KAWAIHAE*      NOT AVBL
SOUTH POINT*   NOT AVBL
UPOLU AIRPORT* NOT AVBL
KAMUELA*       PTCLDY    79  63  57 NE21      30.04S
HAKALAU*         N/A     66  58  74 E5G10       N/A
KALOKO-HONOKO* NOT AVBL
PALI 2*          N/A     81  59  47 N18G30      N/A
KEALAKOMO*       N/A     81  54  39 NE24G35     N/A
KAUPULEHU*     NOT AVBL
KAPAPALA*        N/A     82  67  60 SE9G18      N/A
LOWER KAHUKU*  NOT AVBL
PUHE CS*       NOT AVBL
PUHO CS*       NOT AVBL
PTA KEAMUKU*     N/A     75  57  53 CALM        N/A
WAIKOLOA*      NOT AVBL
$$

HIZ027>028-070100-
BIG ISLAND OF HAWAII INTERIOR AND SUMMMITS-

CITY           SKY/WX    TMP DP  RH WIND       PRES   REMARKS
BRADSHAW FIELD MOSUNNY   75  36  24 S12G22    30.25F
MK VISITOR CEN   N/A      0   0 100 MISG        N/A
MAUNA KEA*       N/A     48   9  20 SE16        N/A
MAUNA LOA*       N/A    N/A N/A N/A MISG        N/A
MAUNA LOA 1*   NOT AVBL
PTA KIPUKA*      N/A     72  55  56 NW12G21     N/A
PTA RANGE 17*    N/A    N/A N/A N/A W14G23      N/A
PTA WEST*        N/A     75  57  53 NW12G23     N/A
NENE CABIN*    NOT AVBL
AHUMOA*        NOT AVBL
PTA PORTABLE*  NOT AVBL
PUU MALI*        N/A     61  52  72 NE28G35     N/A
$$

HIC003-070100-
NORTHWEST ISLANDS-

CITY           SKY/WX    TMP DP  RH WIND       PRES   REMARKS
MIDWAY ISLAND  PTSUNNY   81  68  65 NE9       30.11S
MIDWAY NOS*    NOT AVBL
FRENCH FRIGATE NOT AVBL
$$

PHZ110>124-180-070100-
BUOY REPORTS

STATION/POSITION TIME  TEMP    WIND        PRES    WAVE   SWELL
                       AIR SEA DIR/SP/G            HT/PER HT/DIR
                 (UTC) (F)     (DEG/KT/KT) (MB)    (FT/S) (FT/D)
BUOY 51001       NOT AVBL
BUOY 51101       0000   80 80   90/ 12/ 14 1016.7S   5/16   5/170
BUOY 51100       NOT AVBL
BUOY 51002       0000   80 81   70/ 16/ 17 1012.2F   7/14   5/190
BUOY 51003       2300   80 82   90/ 14/ 16 1014.3F   5/15   5
BUOY 51004       2247   79 80   50/ 17/ 21 1012.1F   6/16   3/200
BARBERS PT BUOY  NOT AVBL
WAIMEA BAY BUOY  0000      79                N/A     3/10   2
KAILUA BAY BUOY  0000      80                N/A     4/ 5   2/140
LANAI BUOY       NOT AVBL
BARBERS PT 2     0000      80                N/A     5/15   3/190
PAUWELA MAUI     0000      79                N/A     4/ 8
HILO             0000      80                N/A     4/ 9   2/130
KANEOHE BAY BUOY 0000      79                N/A     3/ 8
HANALEI KAUAI    0000      80                N/A     3/ 9
KAHULUI HARBOR   0000   80 82   10/  9/ 21 1014.3S
HONOLULU HARBOR  0000   83 80   50/  5/ 11 1014.7F
KILO NALU        NOT AVBL
HILO HARBOR      0000   81 78   30/ 14/ 17 1014.3F
MOKUOLOE         0000      83              1015.4F
NAWILIWILI       0000   79 81   60/ 11/ 17 1015.8F
WHOTS BUOY       NOT AVBL
BUOY 51028       NOT AVBL
$$

......................KEY........................................
  SKY/WX - SKY CONDITIONS/PRESENT WEATHER
  TMP    - TEMPERATURE IN FAHRENHEIT
  DWPT   - DEWPOINT IN FAHRENHEIT
  RH     - RELATIVE HUMIDITY IN PERCENT
  WIND   - DIRECTION AND SPEED /MPH FOR ISLANDS...KTS FOR BUOYS/
  PRES   - MEAN SEA LEVEL PRESSURE IN INCHES OF HG
  VSB    - VISIBILITY IN MILES
  HX     - HEAT INDEX
  WCI    - WIND CHILL INDEX
  VRB    - VARIABLE WIND DIRECTION
  N/A    - NOT AVAILABLE


USA.gov is the U.S. government's official web portal to all federal, state and local government web resources and services.